Flag for U.S.A. Weather past 2 weeks in San Angelo, Texas, U.S.A.

Now
42 °F

Overcast.


Feels Like: 42 °F
Forecast: 33 / 58 °F
Wind: No wind

Location: Mathis Field

Current Time: Dec 20, 2014 at 7:03:05 AM

Latest Report: Dec 20, 2014 at 5:51 AM


Visibility: 10 mi

Pressure: 30.16 "Hg

Humidity: 89%

Dew point: 39 °F

Location of San AngeloLocation

Historic Weather in San Angelo — Graph

°F

San Angelo temperature yesterday

Maximum temperature yesterday: 51 °F (at 1:51 PM)
Minimum temperature yesterday: 44 °F (at 11:59 PM)
Average temperature yesterday: 48 °F

Past Weeks' High & Low Weather Summary

 TemperatureHumidityPressure
High78 °F (Dec 5, 2:51 PM)100% (Dec 8, 2:57 AM)30.44 "Hg (Dec 8, 2:57 AM)
Low35 °F (Dec 16, 6:51 AM)15% (Dec 15, 3:51 PM)29.75 "Hg (Dec 14, 3:51 PM)
Average56 °F70%30.14 "Hg
* Reported Dec 5 4:51 AM — Dec 20 4:51 AM, San Angelo, Weather by CustomWeather, © 2014

Note: Actual official high and low records may vary slightly from our data, if they occured in-between our weather recording intervals... More about our weather records

Advertising

San Angelo weather history for previous 24 hours

 ConditionsComfort  
Time TempWeatherWind HumidityBarometerVisibility
4:51 AM
Dec 20
43 °FOvercast.5 mph89%30.16 "Hg10 mi
3:51 AM45 °FOvercast.No wind82%30.18 "Hg10 mi
2:51 AM44 °FOvercast.No wind85%30.18 "Hg10 mi
1:51 AM43 °FOvercast.5 mph86%30.19 "Hg10 mi
12:51 AM40 °FClear.No wind89%30.18 "Hg10 mi
11:59 PM
Dec 19
44 °FPassing clouds.5 mph82%30.18 "Hg10 mi
10:51 PM46 °FOvercast.3 mph79%30.20 "Hg10 mi
9:59 PM45 °FPassing clouds.5 mph80%30.19 "Hg10 mi
8:51 PM49 °FOvercast.5 mph71%30.20 "Hg10 mi
7:51 PM49 °FOvercast.8 mph74%30.18 "Hg10 mi
6:51 PM49 °FOvercast.10 mph74%30.15 "Hg10 mi
5:51 PM49 °FOvercast.6 mph77%30.15 "Hg10 mi
4:51 PM50 °FOvercast.5 mph71%30.14 "Hg10 mi
3:51 PM50 °FOvercast.7 mph74%30.14 "Hg10 mi
2:51 PM51 °FOvercast.5 mph71%30.13 "Hg10 mi
1:51 PM51 °FOvercast.6 mph71%30.14 "Hg10 mi
12:51 PM49 °FOvercast.3 mph80%30.15 "Hg10 mi
11:51 AM48 °FLow clouds.5 mph83%30.18 "Hg10 mi
10:51 AM46 °FLow clouds.7 mph89%30.20 "Hg10 mi
9:51 AM46 °FLow clouds.7 mph89%30.18 "Hg9 mi
8:51 AM45 °FLow clouds.7 mph90%30.17 "Hg8 mi
7:51 AM45 °FLow clouds.7 mph90%30.16 "Hg10 mi
Weather by CustomWeather, © 2014

See weather overviewHow to use our weather pages